Latest Weather Observations for Cape Naturaliste

IDW60801

Issued at 7:05 am WST Thursday 31 July 2014 (issued every 30 minutes, with the page automatically refreshed every 10 minutes)

About weather observations | Map of weather stations | Latest weather observations for WA | Other Formats
Station Details ID: 009519 Name: CAPE NATURALISTE Lat: -33.54 Lon: 115.02 Height: 109.0 m
Data from the previous 72 hours. | See also: Recent months at Cape Naturaliste
Date/Time
WST
Temp
°C
App
Temp
°C
Dew
Point
Rel
Hum
%
Delta-T
°C
Wind Press
QNH
hPa
Press
MSL
hPa
Rain
since 9 am
mm
Dir
 
Spd
km/h
Gust
km/h
Spd
kts
Gust
kts
31/07:00am 10.0 4.3 3.1 62 3.0 SSE 22 32 12 17 1025.8 1025.8 0.6
31/06:30am 10.5 5.0 3.8 63 3.0 SSE 22 35 12 19 1025.1 - 0.6
31/06:00am 10.6 4.7 3.9 63 3.0 SSE 24 37 13 20 1024.7 1024.7 0.6
31/05:30am 10.6 5.5 3.9 63 3.0 S 20 28 11 15 1024.3 - 0.6
31/05:00am 10.6 5.7 3.9 63 3.0 SSE 19 28 10 15 1024.0 1024.0 0.6
31/04:30am 10.5 5.3 3.5 62 3.1 SSE 20 30 11 16 1023.9 - 0.6
31/04:00am 11.1 5.7 4.3 63 3.0 S 22 32 12 17 1023.9 1023.9 0.6
31/03:30am 11.1 6.0 4.1 62 3.1 S 20 26 11 14 1023.9 - 0.6
31/03:00am 11.5 5.3 4.3 61 3.2 S 26 35 14 19 1023.8 1023.8 0.6
31/02:31am 11.4 3.8 3.7 59 3.4 S 33 52 18 28 1023.7 - 0.6
31/02:30am 11.4 3.4 3.7 59 3.4 S 35 52 19 28 1023.7 - 0.6
31/02:17am 12.0 4.7 4.7 61 3.3 S 32 50 17 27 1023.6 - 0.6
31/02:00am 12.1 4.9 4.8 61 3.3 SSW 32 41 17 22 1023.6 1023.6 0.6
31/01:52am 12.1 4.7 5.0 62 3.3 SSW 33 52 18 28 1023.6 - 0.6
31/01:30am 12.6 5.5 6.2 65 3.0 SSW 33 44 18 24 1023.3 - 0.6
31/01:00am 12.5 6.2 5.9 64 3.1 SSW 28 41 15 22 1023.1 1023.1 0.6
31/12:30am 12.2 4.9 5.4 63 3.2 SSW 33 46 18 25 1023.0 - 0.6
31/12:00am 12.3 4.6 5.5 63 3.2 SSW 35 56 19 30 1022.9 1022.9 0.6
 
Date/Time
WST
Temp
°C
App
Temp
°C
Dew
Point
Rel
Hum
%
Delta-T
°C
Wind Press
QNH
hPa
Press
MSL
hPa
Rain
since 9 am
mm
Dir
 
Spd
km/h
Gust
km/h
Spd
kts
Gust
kts
30/11:30pm 12.7 5.5 6.1 64 3.1 SSW 33 46 18 25 1022.8 - 0.6
30/11:00pm 12.7 4.4 6.1 64 3.1 SSW 39 50 21 27 1022.8 1022.8 0.6
30/10:45pm 13.0 5.2 6.6 65 3.1 SSW 37 56 20 30 1022.6 - 0.6
30/10:30pm 13.0 5.2 6.8 66 3.0 SW 37 50 20 27 1022.4 - 0.6
30/10:00pm 13.0 5.9 9.4 79 1.8 SSW 37 48 20 26 1022.0 1022.0 0.6
30/09:30pm 12.7 6.3 9.5 81 1.6 SW 33 57 18 31 1021.9 - 0.6
30/09:22pm 13.2 6.1 9.5 78 1.9 SW 37 56 20 30 1021.9 - 0.4
30/09:00pm 14.1 7.1 9.9 76 2.2 SW 37 46 20 25 1021.6 1021.6 0.4
30/08:30pm 14.4 7.7 9.6 73 2.5 SW 35 46 19 25 1021.4 - 0.4
30/08:00pm 14.4 7.7 9.6 73 2.5 SW 35 44 19 24 1021.2 1021.2 0.4
30/07:30pm 14.3 7.5 9.1 71 2.7 SW 35 44 19 24 1021.0 - 0.4
30/07:00pm 14.4 7.9 9.0 70 2.8 SW 33 44 18 24 1021.0 1021.0 0.4
30/06:30pm 14.4 7.6 9.2 71 2.7 SW 35 46 19 25 1020.9 - 0.4
30/06:00pm 14.5 8.3 9.9 74 2.4 SW 33 44 18 24 1020.7 1020.7 0.2
30/05:30pm 14.6 8.2 10.6 77 2.1 SW 35 44 19 24 1020.4 - 0.2
30/05:00pm 14.8 8.6 11.4 80 1.8 SW 35 48 19 26 1020.1 1020.0 0.2
30/04:30pm 14.6 9.1 11.7 83 1.6 SW 32 44 17 24 1020.1 - 0.2
30/04:00pm 14.2 9.4 11.7 85 1.3 SW 28 35 15 19 1019.9 1019.8 0.2
30/03:30pm 14.4 8.7 11.9 85 1.4 SW 33 50 18 27 1019.9 - 0.2
30/03:00pm 16.3 9.7 11.2 72 2.7 WSW 37 48 20 26 1019.4 1019.3 0.0
30/02:30pm 16.9 11.0 11.0 68 3.2 W 33 43 18 23 1019.2 - 0.0
30/02:00pm 17.5 12.3 12.8 74 2.6 W 32 44 17 24 1019.2 1019.1 0.0
30/01:30pm 17.1 10.9 12.6 75 2.5 W 37 50 20 27 1019.4 - 0.0
30/01:00pm 17.2 12.2 13.5 79 2.1 W 32 43 17 23 1019.4 1019.3 0.0
30/12:30pm 15.8 9.1 12.4 80 1.9 W 39 52 21 28 1019.7 - 0.0
30/12:00pm 17.5 11.6 11.1 66 3.5 W 33 46 18 25 1019.9 1019.8 0.0
30/11:30am 17.6 12.7 11.4 67 3.4 W 28 35 15 19 1020.2 - 0.0
30/11:00am 17.8 12.0 11.4 66 3.5 W 33 41 18 22 1020.3 1020.2 0.0
30/10:30am 15.9 10.2 11.1 73 2.6 W 32 48 17 26 1020.6 - 0.0
30/10:00am 15.9 10.0 9.1 64 3.5 W 30 39 16 21 1020.7 1020.7 0.0
30/09:30am 16.1 9.3 9.3 64 3.5 W 35 44 19 24 1020.5 - 0.0
30/09:00am 15.7 9.0 9.6 67 3.2 W 35 46 19 25 1020.2 1020.1 0.2
30/08:30am 15.4 9.0 9.3 67 3.2 WNW 33 46 18 25 1020.1 - 0.2
30/08:00am 15.5 9.3 9.2 66 3.2 W 32 44 17 24 1020.1 1020.0 0.2
30/07:30am 15.5 8.3 9.2 66 3.3 W 37 48 20 26 1019.8 - 0.2
30/07:00am 15.3 8.8 8.8 65 3.3 W 33 46 18 25 1019.8 1019.7 0.2
30/06:30am 15.4 9.8 10.0 70 2.8 W 30 41 16 22 1019.8 - 0.2
30/06:00am 15.2 9.7 9.1 67 3.1 WNW 28 37 15 20 1019.6 1019.5 0.2
30/05:30am 15.4 9.5 9.1 66 3.2 W 30 37 16 20 1019.6 - 0.2
30/05:00am 15.1 8.8 9.0 67 3.1 WNW 32 39 17 21 1019.5 1019.4 0.2
30/04:30am 15.3 9.0 9.0 66 3.2 WNW 32 43 17 23 1019.5 - 0.2
30/04:00am 15.4 8.6 9.3 67 3.1 W 35 44 19 24 1019.7 1019.6 0.2
30/03:30am 15.5 9.4 10.3 71 2.7 W 33 39 18 21 1019.9 - 0.2
30/03:00am 15.4 9.2 9.3 67 3.1 WNW 32 39 17 21 1020.1 1020.0 0.2
30/02:30am 15.4 9.6 9.5 68 3.1 WNW 30 43 16 23 1020.4 - 0.2
30/02:00am 15.5 9.3 9.4 67 3.2 W 32 43 17 23 1020.6 1020.5 0.2
30/01:30am 15.5 8.8 9.6 68 3.1 W 35 44 19 24 1020.7 - 0.2
30/01:00am 15.7 10.0 11.3 75 2.4 W 32 39 17 21 1020.6 1020.5 0.2
30/12:30am 15.8 9.7 10.3 70 2.9 W 33 41 18 22 1020.8 - 0.2
30/12:00am 15.5 10.0 9.0 65 3.3 WNW 28 37 15 20 1021.0 1021.0 0.2
 
Date/Time
WST
Temp
°C
App
Temp
°C
Dew
Point
Rel
Hum
%
Delta-T
°C
Wind Press
QNH
hPa
Press
MSL
hPa
Rain
since 9 am
mm
Dir
 
Spd
km/h
Gust
km/h
Spd
kts
Gust
kts
29/11:30pm 15.5 9.4 9.8 69 3.0 WNW 32 41 17 22 1021.0 - 0.0
29/11:00pm 15.5 10.4 10.7 73 2.5 WNW 28 39 15 21 1021.3 1021.3 0.0
29/10:30pm 15.4 10.0 10.8 74 2.5 WNW 30 37 16 20 1021.5 - 0.0
29/10:00pm 14.6 9.2 10.8 78 2.0 WNW 30 39 16 21 1021.5 1021.5 0.0
29/09:30pm 15.6 10.4 10.2 70 2.8 WNW 28 39 15 21 1021.3 - 0.0
29/09:00pm 15.4 9.6 9.5 68 3.1 WNW 30 37 16 20 1021.5 1021.5 0.0
29/08:30pm 15.3 10.0 9.7 69 2.9 W 28 39 15 21 1021.6 - 0.0
29/08:00pm 15.0 10.9 11.6 80 1.8 W 24 30 13 16 1021.7 1021.7 0.0
29/07:30pm 14.8 9.1 11.2 79 1.9 W 32 44 17 24 1021.7 - 0.0
29/07:00pm 15.3 9.5 10.9 75 2.3 W 32 43 17 23 1021.6 1021.6 0.0
29/06:30pm 14.8 9.5 11.2 79 1.9 WNW 30 41 16 22 1021.7 - 0.0
29/06:00pm 14.2 9.0 11.7 85 1.3 WNW 30 39 16 21 1021.7 1021.7 0.0
29/05:30pm 14.2 9.4 11.5 84 1.4 WNW 28 35 15 19 1021.4 - 0.0
29/05:00pm 15.1 10.8 12.1 82 1.6 WNW 26 33 14 18 1021.4 1021.4 0.0
29/04:30pm 14.7 11.4 11.7 82 1.6 WNW 20 35 11 19 1021.2 - 0.0
29/04:00pm 15.1 10.2 11.3 78 2.0 WNW 28 39 15 21 1021.3 1021.3 0.0
29/03:30pm 16.8 12.9 12.1 74 2.6 WNW 24 32 13 17 1021.2 - 0.0
29/03:00pm 15.4 12.2 11.8 79 2.0 WNW 20 28 11 15 1021.0 1021.0 0.0
29/02:30pm 15.9 12.2 11.5 75 2.4 NW 22 30 12 16 1021.1 - 0.0
29/02:00pm 16.1 11.1 10.8 71 2.8 WNW 28 35 15 19 1021.3 1021.3 0.0
29/01:30pm 16.2 11.4 10.3 68 3.1 WNW 26 33 14 18 1021.4 - 0.0
29/01:00pm 17.2 13.3 10.8 66 3.4 WNW 22 30 12 16 1021.4 1021.4 0.0
29/12:30pm 16.4 12.1 10.7 69 3.1 WNW 24 32 13 17 1021.8 - 0.0
29/12:00pm 16.6 12.0 9.8 64 3.6 W 24 30 13 16 1022.0 1022.0 0.0
29/11:30am 17.0 12.3 9.4 61 4.0 W 24 30 13 16 1022.4 - 0.0
29/11:00am 16.1 10.1 8.8 62 3.7 W 30 43 16 23 1022.6 1022.6 0.0
29/10:30am 16.2 10.9 8.4 60 4.0 WNW 26 33 14 18 1022.8 - 0.0
29/10:00am 16.1 11.4 9.1 63 3.6 WNW 24 33 13 18 1022.6 1022.6 0.0
29/09:30am 15.9 11.5 9.1 64 3.5 W 22 33 12 18 1022.3 - 0.0
29/09:00am 16.6 12.2 8.8 60 4.0 W 22 28 12 15 1022.2 1022.2 0.2
29/08:30am 15.3 10.0 8.5 64 3.5 W 26 35 14 19 1022.0 - 0.2
29/08:00am 15.2 10.5 9.1 67 3.1 W 24 32 13 17 1021.8 1021.8 0.2
29/07:30am 15.0 10.4 8.3 64 3.4 W 22 28 12 15 1021.5 - 0.2
29/07:00am 15.2 9.5 8.2 63 3.5 W 28 37 15 20 1021.3 1021.3 0.2
29/06:30am 15.2 10.4 8.9 66 3.2 W 24 32 13 17 1021.1 - 0.2
29/06:00am 15.2 10.1 9.1 67 3.1 W 26 32 14 17 1021.0 1021.0 0.2
29/05:30am 15.0 10.3 9.1 68 3.0 WSW 24 32 13 17 1021.0 - 0.2
29/05:00am 15.0 9.5 7.5 61 3.7 W 26 35 14 19 1020.8 1020.8 0.2
29/04:30am 15.3 10.2 9.2 67 3.1 W 26 33 14 18 1020.6 - 0.2
29/04:00am 15.3 9.0 9.0 66 3.2 W 32 41 17 22 1020.7 1020.7 0.2
29/03:30am 15.4 9.0 9.3 67 3.2 W 33 41 18 22 1020.6 - 0.2
29/03:00am 15.4 10.2 10.2 71 2.7 W 28 39 15 21 1020.7 1020.7 0.2
29/02:30am 15.3 9.3 10.1 71 2.7 W 32 41 17 22 1020.8 - 0.2
29/02:00am 15.3 8.8 10.5 73 2.5 W 35 43 19 23 1020.8 1020.8 0.2
29/01:30am 15.2 9.5 11.0 76 2.2 W 32 41 17 22 1020.8 - 0.2
29/01:00am 14.8 9.4 10.8 77 2.1 W 30 35 16 19 1021.0 1021.0 0.2
29/12:30am 15.2 9.8 11.0 76 2.2 W 30 37 16 20 1021.1 - 0.2
29/12:00am 15.2 9.8 11.0 76 2.2 W 30 39 16 21 1021.1 1021.1 0.2
 
Date/Time
WST
Temp
°C
App
Temp
°C
Dew
Point
Rel
Hum
%
Delta-T
°C
Wind Press
QNH
hPa
Press
MSL
hPa
Rain
since 9 am
mm
Dir
 
Spd
km/h
Gust
km/h
Spd
kts
Gust
kts
28/11:30pm 14.7 8.8 11.3 80 1.8 W 33 43 18 23 1021.4 - 0.2
28/11:00pm 14.4 9.8 11.0 80 1.8 W 26 33 14 18 1021.4 1021.4 0.2
28/10:37pm 15.3 10.5 11.5 78 2.1 W 28 46 15 25 1021.4 - 0.2
28/10:30pm 15.4 11.7 11.6 78 2.1 W 22 30 12 16 1021.5 - 0.2
28/10:00pm 14.9 9.9 11.1 78 2.0 WNW 28 33 15 18 1021.5 1021.5 0.2
28/09:30pm 15.6 10.9 10.8 73 2.6 W 26 35 14 19 1021.3 - 0.2
28/09:00pm 15.3 9.4 10.3 72 2.6 WSW 32 39 17 21 1021.6 1021.6 0.2
28/08:30pm 15.5 10.2 11.1 75 2.4 W 30 37 16 20 1021.6 - 0.2
28/08:00pm 15.4 10.8 11.2 76 2.2 W 26 35 14 19 1021.4 1021.4 0.2
28/07:30pm 15.0 10.2 10.4 74 2.4 W 26 35 14 19 1021.4 - 0.2
28/07:00pm 15.3 9.7 10.1 71 2.7 W 30 39 16 21 1021.2 1021.2 0.2
28/06:30pm 15.3 9.7 10.1 71 2.7 W 30 37 16 20 1021.1 - 0.2
28/06:00pm 15.2 9.1 9.6 69 2.9 W 32 41 17 22 1020.8 1020.8 0.2
28/05:30pm 15.3 8.9 9.4 68 3.1 W 33 41 18 22 1020.7 - 0.2
28/05:00pm 16.1 9.8 9.8 66 3.3 W 33 43 18 23 1020.4 1020.3 0.2
28/04:30pm 16.2 10.6 10.3 68 3.1 W 30 39 16 21 1020.2 - 0.2
28/04:00pm 17.3 11.8 10.4 64 3.7 W 30 41 16 22 1020.0 1019.9 0.2
28/03:30pm 17.5 11.8 11.1 66 3.5 W 32 41 17 22 1020.0 - 0.2
28/03:00pm 16.9 11.2 11.0 68 3.2 W 32 41 17 22 1019.8 1019.7 0.2
28/02:30pm 17.9 12.1 10.8 63 3.8 W 32 41 17 22 1019.9 - 0.2
28/02:00pm 18.3 13.2 10.7 61 4.1 W 28 41 15 22 1020.0 1019.9 0.2
28/01:30pm 17.5 11.3 10.1 62 3.9 W 33 44 18 24 1020.1 - 0.2
28/01:00pm 17.8 11.4 10.7 63 3.8 W 35 46 19 25 1020.4 1020.3 0.2
28/12:30pm 17.1 10.7 10.7 66 3.4 W 35 44 19 24 1020.9 - 0.2
28/12:00pm 17.2 10.8 10.8 66 3.4 W 35 43 19 23 1021.1 1021.1 0.2
28/11:30am 16.8 10.8 10.9 68 3.2 W 33 41 18 22 1021.3 - 0.2
28/11:00am 17.5 12.8 12.0 70 3.0 W 28 35 15 19 1021.3 1021.3 0.0
28/10:30am 15.8 9.5 11.0 73 2.6 W 35 44 19 24 1021.5 - 0.0
28/10:00am 16.9 10.4 10.5 66 3.4 W 35 46 19 25 1021.3 1021.3 0.0
28/09:30am 15.2 8.8 10.6 74 2.4 W 35 46 19 25 1020.9 - 0.0
28/09:00am 14.5 8.6 11.3 81 1.7 W 33 46 18 25 1020.7 1020.7 0.2
28/08:30am 13.9 6.6 10.3 79 1.9 W 39 61 21 33 1020.5 - 0.2
28/08:22am 14.3 7.3 10.1 76 2.2 W 37 56 20 30 1020.5 - 0.0
28/08:00am 15.4 8.1 10.2 71 2.7 W 39 52 21 28 1020.2 1020.1 0.0
28/07:30am 15.2 8.2 10.0 71 2.7 W 37 50 20 27 1019.9 - 0.0

Other Formats:

Comma delimited format used in spreadsheet applications
http://www.bom.gov.au/fwo/IDW60801/IDW60801.94600.axf

JavaScript Object Notation format (JSON) in row-major order
http://www.bom.gov.au/fwo/IDW60801/IDW60801.94600.json